Skip Page Navigation
NASA JPL Caltech
NASA Logo - Jet Propulsion Laboratory + View the NASA Portal
+ Center for Near-Earth Object Studies
JPL Home Earth Solar System Stars & Galaxies Technology
JPL Solar System Dynamics
BODIES ORBITS EPHEMERIDES TOOLS PHYSICAL DATA DISCOVERY FAQ SITE MAP
JPL Small-Body Database Browser
Search: [ help ]  
469916 (2005 YL91)
Classification: Main-belt Asteroid          SPK-ID: 2469916
Ephemeris | Orbit Diagram | Orbital Elements | Mission Design | Physical Parameters | Discovery Circumstances ]

[ show orbit diagram ]
Orbital Elements at Epoch 2459000.5 (2020-May-31.0) TDB
Reference: JPL 20 (heliocentric ecliptic J2000)
 Element Value Uncertainty (1-sigma)   Units 
e .1205194597923144 8.1484e-08  
a 2.571301381299048 2.226e-08 au
q 2.261409527861655 2.1479e-07 au
i 3.142961294385819 7.2171e-06 deg
node 260.6516214941122 0.00011828 deg
peri 174.5170687629443 0.00012227 deg
M 211.3856692405494 3.0102e-05 deg
tp 2459622.207477617512
(2022-Feb-11.70747762)
0.00012984 TDB
period 1506.010159306737
4.12
1.9556e-05
5.354e-08
d
yr
n .2390422121492987 3.1041e-09 deg/d
Q 2.881193234736441 2.4943e-08 au
  Orbit Determination Parameters
   # obs. used (total)      158  
   data-arc span      4894 days (13.40 yr)  
   first obs. used      2005-11-30  
   last obs. used      2019-04-25  
   planetary ephem.      DE431  
   SB-pert. ephem.      SB431-N16  
   condition code      0  
   norm. resid. RMS      .50835  
   source      ORB  
   producer      Otto Matic  
   solution date      2020-Feb-26 14:00:10  

Additional Information
 Earth MOID = 1.27654 au 
 Jupiter MOID = 2.35051 au 
 T_jup = 3.417 
[ show covariance matrix ]

Ephemeris | Orbit Diagram | Orbital Elements | Mission Design | Physical Parameters | Discovery Circumstances ]

Physical Parameter Table
Parameter Symbol Value Units Sigma Reference Notes
absolute magnitude H 17.0   n/a MPO434692  

469916 (2005 YL91)          Discovered 2005-Nov-30 by Mt. Lemmon Survey at Mount Lemmon
Reference: Last Updated: 2016-08-22
Ephemeris | Orbit Diagram | Orbital Elements | Mission Design | Physical Parameters | Discovery Circumstances ]
ABOUT SSD CREDITS/AWARDS PRIVACY/COPYRIGHT GLOSSARY LINKS
FirstGov 2020-Jul-02 06:15 UT
(server date/time)  
NASA Home Page
Site Manager:   Ryan S. Park
Webmaster  Alan B. Chamberlin